GEFSSE_con_prob3kmehi_090.txt.gz
EHI
62 58 54 37 13 2 1 0 0 0 0 0 0 0 0 0 0 1 1 1 0 0 0 0 0 0 0 0 0 0 0 0 0 0 0 0 0 0 0 0 0 0 0
63 59 56 40 16 4 2 1 1 0 0 0 0 0 0 0 0 0 0 0 0 0 0 0 0 0 0 0 0 0 0 0 0 0 0 0 0 0 0 0 0 0 0
50 49 49 39 20 7 4 3 2 1 0 0 0 0 0 0 0 0 0 0 0 0 0 0 0 0 0 0 0 0 0 0 0 0 0 0 0 0 0 0 0 0 0
34 36 40 38 25 12 7 6 5 3 2 2 3 2 1 0 0 0 0 0 0 0 0 0 0 0 0 0 0 0 0 0 0 0 0 0 0 0 0 0 0 0 0
30 34 39 38 29 17 11 10 10 9 9 9 9 7 3 1 0 0 0 0 0 0 0 0 0 0 0 0 0 0 0 1 1 1 0 0 0 0 0 0 0 0 0
30 33 37 37 30 19 13 13 13 13 15 17 15 10 5 2 1 0 0 0 0 0 0 0 0 0 0 0 0 0 1 3 3 2 2 2 2 1 0 0 0 0 0
29 29 31 33 28 18 12 11 12 13 16 17 14 10 6 3 1 0 0 0 0 0 0 0 0 0 0 0 0 0 3 5 4 3 6 6 4 2 1 0 0 0 0
34 28 25 25 20 13 9 8 9 11 13 13 10 7 4 2 1 1 2 2 1 0 0 0 0 0 0 0 0 0 2 4 4 4 8 10 7 4 2 0 0 0 0
35 25 16 13 11 9 7 5 6 8 9 7 4 2 1 1 1 2 3 3 2 2 2 0 0 0 0 0 0 0 0 2 2 3 9 14 13 10 6 2 0 0 0
31 20 10 8 8 6 5 4 5 6 6 3 1 1 1 0 1 1 3 4 5 4 3 2 1 0 0 1 1 1 0 0 1 4 13 24 26 21 12 5 1 0 0
33 24 16 14 10 6 7 9 7 5 5 4 4 5 4 3 3 5 9 12 9 5 4 3 2 1 1 2 4 3 1 0 0 7 25 42 44 34 22 11 4 1 0
38 33 33 32 22 13 15 18 12 11 14 13 14 15 13 10 9 13 22 24 14 6 3 4 3 2 2 4 7 7 3 1 1 12 38 61 62 48 33 20 10 4 2
39 43 52 55 43 33 31 27 20 21 27 27 27 29 25 21 19 24 32 32 20 11 10 10 8 4 4 7 10 9 4 1 2 14 44 68 69 58 44 31 19 10 6
44 51 63 67 61 54 48 40 32 33 36 38 40 40 36 33 31 34 39 37 29 24 23 22 14 7 6 8 10 8 5 2 4 15 41 62 67 61 50 37 27 17 13
55 59 67 68 66 63 58 51 45 43 44 46 46 45 42 42 40 40 41 39 33 31 31 26 17 10 7 7 8 10 10 9 10 18 36 55 62 61 51 39 32 27 21
61 64 67 66 63 60 56 52 47 46 47 46 44 42 42 42 40 37 35 33 29 26 25 21 13 8 6 6 8 12 14 14 16 21 33 48 59 57 49 40 38 37 33
66 68 64 58 56 53 48 44 38 37 39 38 35 33 33 33 30 26 23 21 20 18 18 15 11 9 7 5 6 8 11 14 15 21 31 43 49 46 41 39 41 43 42
71 71 64 56 52 46 39 32 28 26 28 28 25 22 21 20 18 15 13 12 13 13 13 12 13 14 12 7 5 5 8 11 13 17 26 33 34 32 32 32 36 40 41
66 66 63 57 48 37 29 23 19 19 19 18 16 15 14 11 10 10 10 10 10 10 10 11 13 13 12 8 4 3 6 8 9 11 15 19 22 24 25 26 29 32 31
52 54 53 49 40 29 22 19 17 17 16 13 11 13 13 9 7 8 9 9 9 10 11 11 11 9 7 6 3 2 3 5 5 6 8 10 13 17 19 22 25 25 23
43 44 42 39 34 27 24 24 24 22 18 13 13 16 16 10 6 6 9 10 11 13 13 11 10 6 4 3 3 2 2 2 3 4 5 6 7 9 12 17 22 23 22
40 41 41 41 37 33 30 28 27 24 18 15 19 22 19 14 11 10 13 15 15 15 13 10 8 4 2 2 3 2 1 1 1 1 3 5 5 5 7 11 16 21 22
38 43 49 55 51 41 33 26 22 19 15 18 25 27 23 19 17 16 17 18 17 14 10 7 4 2 1 1 2 2 1 0 0 0 1 2 3 4 5 6 9 13 15
38 48 62 68 61 47 33 24 17 13 14 19 27 31 29 23 19 17 17 19 16 11 7 3 1 1 0 0 1 1 1 0 0 0 0 0 2 4 4 3 5 7 8
36 48 65 70 61 45 32 25 17 10 12 16 22 27 27 22 18 17 19 20 16 10 4 1 0 1 1 0 0 0 0 0 0 0 0 0 0 2 2 3 5 7 6
32 44 61 66 57 43 31 22 14 9 10 12 14 18 19 18 17 19 22 22 17 9 3 0 0 1 1 1 0 0 0 0 0 0 0 0 0 0 1 2 6 8 7

GEFSSE_con_prob3kmehi_096.txt.gz
EHI
5 9 19 32 36 28 18 10 7 6 6 6 6 6 8 8 7 6 4 2 2 1 0 0 0 0 0 0 0 0 0 0 0 0 0 0 0 0 0 0 0 0 0
19 18 25 38 39 31 20 11 7 5 5 5 4 4 5 5 5 5 3 1 1 0 0 0 0 0 0 0 0 0 0 0 0 0 0 0 0 0 0 0 0 0 0
45 34 34 45 46 36 23 12 6 4 3 3 3 2 2 2 2 2 1 0 0 0 0 0 0 0 0 0 0 0 0 0 0 0 0 0 0 0 0 0 0 0 0
66 51 46 55 56 46 31 16 7 3 2 1 1 1 0 0 0 0 0 0 0 0 0 0 0 0 0 0 0 0 0 0 0 0 0 0 0 0 0 0 0 0 0
75 66 63 68 67 55 38 23 12 5 1 0 0 0 0 0 0 0 0 0 0 0 0 0 0 0 0 0 0 0 0 0 0 0 0 0 0 0 0 0 0 0 0
78 74 73 76 71 57 42 27 16 8 2 0 0 0 0 0 0 0 0 0 0 0 0 0 0 0 0 0 0 0 0 0 0 0 0 0 0 0 0 0 0 0 0
76 70 69 72 67 56 42 28 18 10 3 0 0 0 0 0 0 0 0 0 0 0 0 0 0 0 0 0 0 0 0 0 0 0 0 0 1 2 1 0 0 0 0
67 61 57 57 54 49 38 27 20 13 6 1 0 0 0 0 0 0 0 0 0 0 0 0 0 0 0 0 0 0 0 0 0 0 0 0 2 5 4 1 0 0 0
54 52 45 37 35 34 28 23 19 13 7 3 1 0 0 0 0 0 0 0 0 0 0 0 0 0 0 0 0 0 0 0 0 0 0 0 4 8 8 4 1 0 0
40 37 31 23 19 18 15 14 12 8 5 3 1 0 0 0 0 0 0 0 0 0 0 0 0 0 0 0 0 0 0 0 0 0 0 1 5 10 10 6 2 1 0
21 19 16 13 10 8 6 5 4 3 3 2 1 0 0 0 0 1 1 1 0 0 0 0 0 0 0 0 0 0 0 0 0 0 0 2 7 11 10 7 4 3 2
9 7 5 4 4 3 3 2 1 1 1 2 1 0 0 0 0 1 2 2 0 0 0 0 0 0 0 0 0 0 0 0 0 0 0 3 8 12 9 6 5 5 4
7 5 3 2 1 2 2 1 0 0 1 1 1 0 0 0 0 1 2 2 1 1 0 0 0 0 0 0 0 0 0 0 0 0 1 4 8 10 8 5 4 5 6
12 11 8 5 4 4 4 2 1 2 2 1 0 0 0 0 0 0 1 2 2 1 0 0 1 0 0 0 0 0 0 0 0 1 2 5 9 11 10 6 3 4 6
25 21 16 14 13 11 8 6 4 5 5 3 1 1 1 0 0 1 2 2 2 1 0 0 0 0 0 0 0 0 0 0 1 2 3 6 10 12 10 7 4 4 6
39 33 25 24 24 21 16 13 10 8 7 5 2 2 1 0 0 1 1 1 1 0 0 0 0 0 0 0 0 0 0 0 1 1 2 3 6 7 7 6 6 7 7
47 40 31 28 28 26 23 19 14 8 6 3 1 1 0 0 0 0 0 0 0 0 0 0 0 0 0 0 0 0 0 0 0 0 0 0 1 2 3 5 7 8 7
44 38 29 23 23 22 19 15 10 5 2 1 0 0 0 0 0 0 0 0 0 0 0 0 0 0 0 0 0 0 0 0 0 0 0 0 0 0 1 2 5 6 5
31 27 22 17 14 12 9 6 4 2 0 0 0 0 0 0 0 0 0 0 0 0 0 0 0 0 0 0 0 0 0 0 0 0 0 0 0 0 0 1 2 2 2
20 19 17 15 11 6 3 2 2 1 0 0 0 0 0 0 0 0 0 0 0 0 0 0 0 0 0 0 0 0 0 0 0 0 0 0 0 0 0 0 1 2 2
17 16 15 14 10 4 1 1 1 1 0 0 0 0 0 0 0 0 0 0 0 0 0 0 0 0 0 0 0 0 0 0 0 0 0 0 0 0 0 0 1 2 3
16 14 13 12 9 4 1 0 0 0 0 0 0 0 0 0 0 0 0 0 0 0 0 0 0 0 0 0 0 0 0 0 0 0 0 0 0 0 0 0 1 2 3
13 11 10 9 7 4 2 1 0 0 0 0 0 0 0 0 0 0 0 0 0 0 0 0 0 0 0 0 0 0 0 0 0 0 0 0 0 0 0 0 0 1 2
9 9 8 7 6 5 3 2 1 0 0 0 0 0 0 0 0 0 0 0 0 0 0 0 0 0 0 0 0 0 0 0 0 0 0 0 0 0 0 0 0 0 1
10 10 10 8 6 4 2 1 1 0 0 0 0 0 0 0 0 0 0 0 0 0 0 0 0 0 0 0 0 0 0 0 0 0 0 0 0 0 0 0 0 0 0
14 15 14 10 6 2 1 1 0 0 0 0 0 0 0 0 0 0 0 0 0 0 0 0 0 0 0 0 0 0 0 0 0 0 0 0 0 0 0 0 0 0 0

GEFSSE_con_prob3kmehi_102.txt.gz
EHI
13 12 13 24 44 60 63 62 59 54 50 46 40 28 14 4 1 1 0 0 0 0 0 0 0 0 0 0 0 0 0 0 0 0 0 0 0 0 0 0 0 0 0
21 16 16 29 48 60 60 57 54 49 43 37 29 20 10 4 2 2 1 0 0 0 0 0 0 0 0 0 0 0 0 0 0 0 0 0 0 0 0 0 0 0 0
33 22 20 35 54 61 57 51 45 38 32 25 18 10 5 3 3 2 1 0 0 0 0 0 0 0 0 0 0 0 0 0 0 0 0 0 0 0 0 0 0 0 0
42 30 25 40 57 62 56 46 36 28 24 19 12 6 4 3 3 2 1 0 0 0 0 0 0 0 0 0 0 0 0 0 0 0 0 0 0 0 0 0 0 0 0
43 34 32 44 58 60 54 42 29 22 19 14 9 5 3 2 2 1 0 0 0 0 0 0 0 0 0 0 0 0 0 0 0 0 0 0 0 0 0 0 0 0 0
40 35 36 48 56 54 48 37 26 19 14 10 6 3 1 1 1 0 0 0 0 0 0 0 0 0 0 0 0 0 0 0 0 0 0 0 0 0 0 0 0 0 0
45 38 39 49 52 48 42 33 24 16 11 7 4 1 0 0 0 0 0 0 0 0 0 0 0 0 0 0 0 0 0 0 0 0 0 0 0 0 0 0 0 0 0
58 49 43 43 44 42 38 31 22 14 8 5 3 1 0 0 0 0 0 0 0 0 0 0 0 0 0 0 0 0 0 0 0 0 0 0 0 0 0 0 0 0 0
66 59 48 40 37 35 33 29 22 14 8 4 3 1 0 0 0 0 0 0 0 0 0 0 0 0 0 0 0 1 1 0 0 0 0 0 0 0 0 0 0 0 0
60 57 51 44 37 30 27 26 20 13 6 3 2 1 0 0 0 0 0 0 0 0 0 0 0 0 0 0 0 1 1 0 0 0 0 0 0 0 0 0 0 0 0
47 47 46 43 38 32 26 22 16 10 5 2 1 0 0 0 0 0 0 0 0 0 0 0 0 0 0 0 0 1 1 0 0 0 0 0 0 0 0 0 0 0 0
38 38 36 34 34 32 26 19 14 9 4 1 0 0 0 0 0 0 0 0 0 0 0 0 0 0 0 0 0 0 0 0 0 0 0 0 0 0 0 1 1 1 0
30 28 26 25 26 26 22 15 11 7 3 1 0 0 0 0 0 0 0 0 0 0 0 0 0 0 0 0 0 0 0 0 0 0 0 0 1 1 1 1 1 1 1
21 19 18 18 18 16 14 10 6 3 1 0 0 0 0 0 0 0 0 0 0 0 0 0 0 0 0 0 1 0 0 0 0 0 0 0 2 3 3 2 2 2 2
13 12 11 11 9 7 6 5 3 1 0 0 0 0 0 0 0 0 0 0 0 0 0 0 0 0 0 0 0 0 0 0 0 0 0 0 2 4 5 5 4 3 2
9 6 5 6 4 2 2 1 1 0 0 1 1 1 0 0 0 0 0 0 0 0 0 0 0 0 0 0 0 0 0 0 0 0 0 0 1 3 5 5 4 3 1
5 3 2 2 2 0 0 0 0 0 0 0 0 0 0 0 0 0 0 0 0 0 0 0 0 0 0 0 0 0 0 0 0 0 0 0 0 2 3 2 2 2 1
4 3 2 1 1 0 0 0 0 0 0 0 0 0 0 0 0 0 0 0 0 0 0 0 0 0 0 0 0 0 0 0 0 0 0 0 0 0 1 0 0 0 0
4 4 3 1 0 0 0 0 0 0 0 0 0 1 1 1 0 0 0 0 0 0 0 0 0 0 0 0 0 0 0 0 0 0 0 0 0 0 0 0 0 0 0
3 3 3 2 0 0 0 0 0 0 0 0 1 2 2 1 0 0 0 0 0 0 0 0 0 0 0 0 0 0 0 0 0 0 0 0 0 0 0 0 0 0 0
3 3 3 2 1 0 0 0 0 0 0 0 1 2 1 1 0 0 0 0 0 0 0 0 0 0 0 0 0 0 0 0 0 0 0 0 0 0 0 0 0 0 0
4 4 3 3 1 1 0 0 0 0 0 0 1 1 0 0 0 0 0 0 0 0 0 0 0 0 0 0 0 0 0 0 0 0 0 0 0 0 0 0 0 0 0
4 3 3 3 3 2 1 0 1 0 0 0 0 0 0 0 0 0 0 0 0 0 0 0 0 0 0 0 0 0 0 0 0 0 0 0 0 0 0 0 0 0 0
3 3 4 4 5 3 1 0 0 0 0 0 0 0 0 0 0 0 0 0 0 0 0 0 0 0 0 0 0 0 0 0 0 0 0 0 0 0 0 0 0 0 0
2 2 4 5 5 3 1 0 0 0 0 0 0 0 0 0 0 0 0 0 0 0 0 0 0 0 0 0 0 0 0 0 0 0 0 0 0 0 0 0 0 0 0
2 2 3 4 4 2 0 0 0 0 0 0 0 0 0 0 0 0 0 0 0 0 0 0 0 0 0 0 0 0 0 0 0 0 0 0 0 0 0 0 0 0 0

GEFSSE_con_prob3kmehi_108.txt.gz
EHI
9 10 10 4 1 6 14 22 26 25 23 20 13 5 1 0 0 0 0 0 0 0 0 0 0 0 0 0 0 0 0 0 0 0 0 0 0 0 0 0 0 0 0
13 14 11 5 2 9 19 28 32 31 27 21 13 6 1 0 0 0 0 0 0 0 0 0 0 0 0 0 0 0 0 0 0 0 0 0 0 0 0 0 0 0 0
18 17 12 6 5 13 26 36 38 34 27 19 12 6 2 0 0 0 0 0 0 0 0 0 0 0 0 0 0 0 0 0 0 0 0 0 0 0 0 0 0 0 0
17 17 13 8 8 16 29 37 37 30 22 16 10 5 2 0 0 0 0 0 0 0 0 0 0 0 0 0 0 0 0 0 0 0 0 0 0 0 0 0 0 0 0
15 16 17 13 11 16 26 33 32 26 19 13 7 3 1 0 0 0 0 0 0 0 0 0 0 0 0 0 0 0 0 0 0 0 0 0 0 0 0 0 0 0 0
13 14 18 16 11 14 20 24 25 21 15 10 5 1 0 0 0 0 0 0 0 0 0 0 0 0 0 0 0 0 0 0 0 0 0 0 0 0 0 0 0 0 0
9 10 14 14 10 10 12 16 17 15 11 6 2 1 0 0 0 0 0 0 0 0 0 0 0 0 0 0 0 0 0 0 0 0 0 0 0 0 0 0 0 0 0
6 8 10 9 7 7 8 10 12 11 8 5 2 0 0 0 0 0 0 0 0 0 0 0 0 0 0 0 0 0 0 1 0 0 0 0 0 0 0 0 0 0 0
4 5 6 4 3 4 5 6 7 6 5 3 2 0 0 0 0 0 0 0 0 0 0 0 0 1 1 0 0 0 0 0 0 0 0 0 0 0 0 0 0 0 0
3 4 3 1 1 2 2 3 3 2 2 1 1 0 0 0 0 0 0 0 0 0 0 0 1 1 1 1 0 0 0 0 0 0 0 0 0 0 0 0 0 0 0
6 6 5 4 4 3 2 1 1 0 0 0 0 0 0 0 0 1 2 1 0 0 0 1 1 1 1 1 0 0 0 0 0 0 0 0 0 0 0 0 0 0 0
12 10 9 10 10 7 5 4 2 1 0 0 0 0 0 0 0 2 4 3 1 1 0 1 1 1 0 0 0 0 0 0 0 0 0 0 0 0 0 0 0 0 0
19 15 14 15 13 12 12 8 4 3 2 1 1 0 1 2 2 3 4 3 2 1 0 0 0 0 0 0 0 0 0 0 0 0 0 0 0 0 0 0 0 0 0
27 23 19 19 18 18 17 11 6 4 4 3 2 2 2 3 3 3 3 3 2 1 0 0 0 0 0 0 0 0 0 0 0 0 1 1 0 0 0 0 0 0 0
34 31 28 25 26 26 22 15 9 5 5 5 4 3 4 3 3 3 4 3 2 0 0 0 0 0 0 0 0 0 0 0 0 0 1 1 0 0 0 1 0 0 0
36 35 35 32 30 27 22 16 10 6 7 7 6 5 5 4 4 4 4 3 1 0 0 0 0 0 0 0 0 0 0 0 0 0 1 1 0 0 0 1 1 0 0
32 32 33 31 26 21 17 12 8 7 9 9 8 6 5 4 5 6 4 2 1 0 0 1 1 0 0 0 0 0 0 0 0 0 1 1 0 0 0 1 1 0 0
24 26 26 23 19 15 13 9 7 6 8 9 7 6 5 5 6 5 3 2 1 1 1 1 1 0 0 0 0 0 0 1 0 0 1 1 0 0 1 2 2 1 0
20 21 21 18 16 14 12 13 10 7 5 5 3 3 5 7 6 4 2 1 1 1 1 1 1 0 0 0 0 0 0 0 0 0 0 0 0 0 2 3 2 1 1
20 21 20 19 18 17 16 17 15 8 4 3 2 2 4 5 5 2 1 0 1 2 2 1 1 0 0 0 0 0 0 0 0 0 0 0 0 0 1 2 3 3 2
18 19 20 19 19 20 19 19 16 10 5 3 2 3 3 3 2 1 0 0 1 1 1 0 0 0 0 0 0 0 0 0 0 0 0 0 0 0 0 1 3 4 3
12 14 15 17 18 17 16 16 15 12 7 4 3 3 2 1 0 0 0 0 0 0 0 0 0 0 0 0 0 0 0 0 0 0 0 0 0 0 0 1 2 3 3
6 6 8 12 14 13 11 10 11 10 7 5 4 3 1 0 0 0 0 0 0 0 0 0 0 0 0 0 0 0 0 0 0 0 0 0 0 0 0 0 1 1 1
1 1 4 7 10 10 9 6 5 5 5 5 5 2 0 0 0 0 0 0 0 0 0 0 0 0 0 0 0 0 0 0 0 0 0 0 0 0 0 0 0 0 0
0 0 3 6 9 11 10 7 4 3 4 5 4 1 0 1 2 1 0 0 0 0 0 0 0 0 0 0 0 0 0 0 0 0 0 0 0 0 0 0 0 0 0
0 0 2 6 11 14 13 9 6 4 5 6 4 1 1 2 3 2 1 0 0 0 0 0 0 0 0 0 0 0 0 0 0 0 0 0 0 0 0 0 0 0 0

GEFSSE_con_prob3kmehi_114.txt.gz
EHI
46 44 40 25 8 3 2 1 1 1 0 0 0 0 0 0 0 0 0 0 0 0 0 0 0 0 0 0 0 0 0 0 0 0 0 0 0 0 0 0 0 0 0
54 51 46 30 11 4 3 2 1 1 0 0 0 0 0 0 0 0 0 0 0 0 0 0 0 0 0 0 0 0 0 0 0 0 0 0 0 0 0 0 0 0 0
54 50 46 35 16 6 3 2 1 0 0 0 0 0 0 0 0 0 0 0 0 0 0 0 0 0 0 0 0 0 0 0 0 0 0 0 0 0 0 0 0 0 0
48 45 43 36 20 8 4 3 1 0 0 0 0 0 0 0 0 0 0 0 0 0 0 0 0 0 0 0 0 0 0 0 0 0 0 0 0 0 0 0 0 0 0
48 46 45 39 24 12 7 4 2 0 0 0 0 0 0 0 0 0 0 0 0 0 0 0 0 0 0 0 0 0 0 0 0 0 0 0 0 0 0 0 0 0 0
48 47 47 42 29 17 12 8 4 1 0 0 0 0 0 0 0 0 0 0 0 0 0 0 0 0 0 0 0 0 2 3 3 2 2 1 0 0 0 0 0 0 0
47 45 43 39 29 19 13 8 4 1 0 0 0 0 0 0 0 0 0 0 0 0 0 0 0 0 0 0 0 0 4 7 6 3 3 2 1 0 0 0 0 0 0
49 43 37 33 25 16 9 4 1 0 0 0 0 0 0 0 0 0 0 0 0 0 0 0 0 0 0 0 0 0 4 8 5 2 2 2 1 0 0 0 0 0 0
48 40 29 24 19 11 4 1 0 0 0 0 0 0 0 0 0 0 0 0 0 0 0 0 0 0 0 0 0 1 4 5 3 1 1 1 1 1 1 0 0 0 0
46 34 21 15 11 5 1 0 0 0 0 0 0 0 0 0 0 0 1 1 0 0 0 0 0 0 0 0 0 1 4 4 2 1 1 1 1 2 2 1 0 0 0
50 34 18 13 9 3 0 0 0 0 0 0 0 0 0 0 0 1 2 2 1 0 0 0 0 0 0 0 0 2 3 2 2 3 3 3 4 3 2 1 0 0 0
57 40 25 22 16 9 6 4 1 0 0 0 0 0 0 1 1 3 5 4 2 0 0 0 0 0 0 0 0 1 1 1 2 4 5 6 6 5 2 0 0 0 0
61 51 43 38 31 24 18 10 3 1 1 2 3 2 2 3 5 7 8 6 3 1 1 0 0 0 0 0 0 0 0 1 2 3 6 7 6 4 2 0 0 0 0
64 64 62 55 48 45 34 18 9 7 8 11 12 8 6 6 9 12 12 9 7 4 3 2 2 2 2 1 1 0 1 2 2 2 4 5 3 2 1 0 0 0 0
70 71 72 69 65 61 49 31 21 19 19 22 21 14 11 11 12 14 15 13 10 8 7 7 7 5 3 2 2 1 1 2 3 3 3 3 2 2 2 1 1 0 0
75 75 75 74 71 65 53 42 37 31 29 29 25 18 15 15 15 14 12 10 9 10 10 11 10 7 3 2 2 1 1 1 2 4 5 5 4 4 3 3 3 2 1
78 76 72 67 65 59 48 43 42 38 34 32 29 22 18 17 15 11 7 5 5 8 10 10 8 5 2 1 1 0 0 0 1 3 5 5 5 4 4 5 6 6 5
76 72 62 55 54 52 47 42 41 40 38 34 30 23 18 15 11 8 7 6 5 6 7 6 4 2 0 0 0 0 0 0 0 1 3 4 4 4 4 6 6 7 7
68 63 57 54 53 51 47 45 44 43 39 33 28 23 18 14 9 7 10 10 6 5 5 3 2 0 0 0 0 1 0 0 0 1 2 3 3 3 4 5 5 4 4
58 55 54 58 58 52 47 45 44 41 34 28 25 23 20 14 8 8 11 10 6 6 6 4 2 0 0 0 0 0 0 0 2 3 3 2 2 3 4 5 4 2 1
48 47 49 54 56 52 47 44 43 36 26 21 21 22 19 12 7 7 9 9 7 9 9 5 2 1 0 0 0 0 0 1 3 5 3 1 1 2 4 5 4 3 2
36 40 42 44 46 47 45 43 42 34 21 16 18 20 16 11 7 7 8 7 8 12 10 5 2 1 0 0 0 0 0 1 3 3 2 1 0 1 3 4 4 4 3
26 30 33 34 37 41 42 40 37 30 18 14 19 19 15 12 9 8 6 6 8 10 9 6 3 2 0 0 0 0 0 0 1 0 0 1 0 0 1 2 3 4 3
21 23 26 28 32 37 39 38 33 24 16 17 23 24 20 16 12 8 5 6 7 8 8 6 3 1 0 0 0 0 0 0 0 0 0 0 0 0 0 1 2 3 3
18 20 24 28 32 35 37 37 31 21 16 21 28 31 27 20 12 6 5 6 6 6 6 6 3 1 0 0 0 0 0 0 0 0 0 0 0 0 0 0 1 2 2
16 19 24 31 34 34 36 35 29 20 18 24 31 34 30 22 11 4 4 6 6 6 6 5 3 1 0 0 0 0 0 0 0 0 0 0 0 0 0 0 0 0 1

GEFSSE_con_prob3kmehi_120.txt.gz
EHI
8 11 17 22 24 23 18 14 12 10 7 5 5 5 3 2 1 0 0 0 0 0 0 0 0 0 0 0 0 0 0 0 0 0 0 0 0 0 0 0 0 0 0
17 18 24 28 28 25 19 14 11 9 6 4 4 4 2 1 0 0 0 0 0 0 0 0 0 0 0 0 0 0 0 0 0 0 0 0 0 0 0 0 0 0 0
35 29 32 38 36 27 19 13 10 8 5 3 3 1 1 0 0 0 0 0 0 0 0 0 0 0 0 0 0 0 0 0 0 0 0 0 0 0 0 0 0 0 0
50 40 39 47 43 28 17 11 10 8 5 3 1 0 0 0 0 0 0 0 0 0 0 0 0 0 0 0 0 0 0 0 0 0 0 0 0 0 0 0 0 0 0
59 51 50 56 48 29 15 10 9 7 4 2 1 0 0 0 0 0 0 0 0 0 0 0 0 0 0 0 0 0 0 0 0 0 0 0 0 0 0 0 0 0 0
68 61 60 63 52 30 16 9 7 5 4 2 1 0 0 0 0 0 0 0 0 0 0 0 0 0 0 0 0 0 0 0 0 0 0 0 0 0 0 0 0 0 0
76 68 64 64 52 33 18 8 5 4 2 1 0 0 0 0 0 0 0 0 0 0 0 0 0 0 0 0 0 0 1 1 1 0 0 0 0 0 0 0 0 0 0
77 70 63 57 48 35 22 11 5 3 2 0 0 0 0 0 0 0 0 0 0 0 0 0 0 0 0 0 1 1 2 2 1 0 0 0 0 0 0 0 0 0 0
75 70 61 50 39 32 24 15 7 3 2 1 0 0 0 0 0 0 0 0 0 0 0 0 0 0 1 1 2 2 1 1 1 1 0 0 0 0 0 0 0 0 0
67 65 59 47 34 26 22 14 6 3 2 1 0 0 0 0 0 0 0 0 0 0 0 0 0 1 2 3 3 2 1 0 0 0 0 0 0 0 0 0 0 0 0
56 54 51 43 31 22 17 12 6 2 1 0 0 0 0 0 0 0 0 0 0 0 0 0 0 1 3 3 2 1 0 0 0 0 0 0 0 0 0 0 0 0 0
45 42 38 32 25 18 14 11 6 2 1 0 0 0 0 0 0 0 0 0 0 0 0 0 0 1 1 1 1 0 0 0 0 0 0 0 0 1 1 0 0 0 0
34 32 27 21 17 15 13 11 7 4 2 1 0 0 0 0 0 0 0 0 0 0 0 0 0 0 0 0 0 0 0 0 0 0 0 0 0 1 1 1 0 0 0
24 24 19 14 12 12 12 10 6 3 2 1 0 0 0 0 0 0 0 0 0 0 0 0 0 0 0 0 0 0 0 0 0 0 0 0 0 1 2 1 0 0 0
21 18 14 12 10 10 9 7 4 2 1 0 0 0 0 0 0 0 0 0 0 0 0 0 0 0 0 0 0 0 0 0 0 0 0 0 0 1 2 1 0 0 0
25 20 16 15 13 10 8 5 2 0 0 0 0 0 0 0 0 0 0 0 0 0 0 0 0 0 0 0 0 0 0 0 0 0 0 0 0 0 1 1 0 0 0
33 29 24 21 17 12 8 5 3 2 2 1 0 0 0 0 0 0 0 0 0 0 0 0 0 0 0 0 0 0 0 0 0 0 0 0 0 0 0 0 0 1 1
38 36 33 29 23 15 10 8 6 5 5 4 1 0 0 0 0 0 0 0 0 0 0 0 0 0 0 0 0 0 0 0 0 0 0 0 0 0 0 0 0 0 0
39 39 36 32 27 21 16 13 10 7 6 4 1 0 0 0 0 0 0 0 0 0 0 0 0 0 0 0 0 0 0 0 0 0 0 0 0 0 0 0 0 0 0
37 36 33 30 26 25 22 16 11 8 6 3 2 1 0 0 0 0 0 0 0 0 0 0 0 0 0 0 0 0 0 0 0 0 0 0 0 0 0 0 0 0 0
33 31 28 25 23 24 23 18 12 7 4 2 3 3 1 0 0 0 0 0 0 0 0 0 0 0 0 0 0 0 0 0 0 0 0 0 0 0 0 0 0 0 0
27 26 24 21 20 20 18 16 12 7 3 1 2 3 2 1 0 0 0 0 0 0 0 0 0 0 0 0 0 0 0 0 0 0 0 0 0 0 0 0 0 0 0
19 19 19 17 17 16 15 14 12 8 3 1 1 2 3 2 1 0 0 0 0 0 0 0 0 0 0 0 0 0 0 0 0 0 0 0 0 0 0 0 0 0 0
12 12 11 12 13 13 12 11 9 6 2 0 1 2 3 2 1 0 0 0 0 0 0 0 0 0 0 0 0 0 0 0 0 0 0 0 0 0 0 0 0 0 0
9 7 6 7 9 9 9 7 6 3 1 0 1 2 2 1 0 0 0 0 0 0 0 0 0 0 0 0 0 0 0 0 0 0 0 0 0 0 0 0 0 0 0
8 6 4 5 7 7 6 5 4 2 0 0 0 1 0 0 0 0 0 0 0 0 0 0 0 0 0 0 0 0 0 0 0 0 0 0 0 0 0 0 0 0 0

GEFSSE_con_prob3kmehi_126.txt.gz
EHI
11 12 14 17 25 36 41 41 39 35 30 23 17 10 6 4 3 2 1 0 0 0 0 0 0 0 0 0 0 0 0 0 0 0 0 0 0 0 0 0 0 0 0
19 18 20 25 32 39 41 38 33 28 23 17 13 9 5 3 3 1 0 0 0 0 0 0 0 0 0 0 0 0 0 0 0 0 0 0 0 0 0 0 0 0 0
31 25 24 31 39 42 41 36 28 21 17 12 9 6 4 3 2 1 0 0 0 0 0 0 0 0 0 0 0 0 0 0 0 0 0 0 0 0 0 0 0 0 0
37 30 27 34 41 43 41 35 25 18 14 10 6 4 3 2 1 0 0 0 0 0 0 0 0 0 0 0 0 0 0 0 0 0 0 0 0 0 0 0 0 0 0
38 33 31 36 40 42 41 35 25 16 11 7 4 3 1 1 0 0 0 0 0 0 0 0 0 0 0 0 0 0 0 0 0 0 0 0 0 0 0 0 0 0 0
39 36 37 40 41 41 40 35 26 17 10 5 4 2 1 0 0 0 0 0 0 0 0 0 0 0 0 0 0 0 0 0 0 0 0 0 0 0 0 0 0 0 0
45 43 44 46 44 40 38 34 26 16 9 5 4 2 1 0 0 0 0 0 0 0 0 0 0 0 0 0 0 0 0 0 0 0 0 0 0 0 0 0 0 0 0
52 51 50 50 46 41 38 34 24 15 9 5 3 2 1 0 0 0 0 0 0 0 0 0 0 0 0 0 0 0 0 0 0 0 0 0 0 0 0 0 0 0 0
57 57 53 49 44 41 37 31 22 14 8 3 1 1 0 0 0 0 0 0 0 0 0 0 0 0 0 0 0 0 0 0 0 0 0 0 0 0 0 0 0 0 0
59 57 54 49 44 39 34 27 20 14 7 2 0 0 0 0 0 0 0 0 0 0 0 0 0 0 0 0 0 0 0 0 0 0 0 0 0 0 0 0 0 0 0
55 53 53 52 47 41 33 25 19 13 8 3 1 0 0 0 0 0 0 0 0 0 0 0 0 0 0 0 0 0 0 0 0 0 0 0 0 0 0 0 0 0 0
49 47 48 51 49 42 34 25 19 14 9 4 1 0 0 0 0 0 0 0 0 0 0 0 0 0 0 0 0 0 0 0 0 0 0 0 0 0 0 0 0 0 0
44 42 43 48 47 39 32 25 19 14 10 5 2 0 0 0 0 0 0 0 0 0 0 0 0 0 0 0 0 0 0 0 0 0 0 0 0 0 0 0 0 0 0
41 40 41 42 39 33 29 26 19 14 10 6 2 0 0 0 0 0 0 0 0 0 0 0 0 0 0 0 0 0 0 0 0 0 0 0 0 0 0 0 0 0 0
39 39 39 36 32 28 26 23 18 14 10 5 2 0 0 0 0 0 0 0 0 0 0 0 0 0 0 0 0 0 0 0 0 0 0 0 0 0 0 0 0 0 0
33 33 33 31 27 23 20 16 14 12 9 5 1 0 0 0 0 0 0 0 0 0 0 0 0 0 0 0 0 0 0 0 0 0 0 0 0 0 0 0 0 0 0
23 24 25 24 21 16 12 10 9 8 7 4 1 0 0 0 0 0 0 0 0 0 0 0 0 0 0 0 0 0 0 0 0 0 0 0 0 0 0 0 0 0 0
16 16 17 16 14 10 6 5 5 5 5 3 1 0 0 0 0 0 0 0 0 0 0 0 0 0 0 0 0 0 0 0 0 0 0 0 0 0 0 0 0 0 0
11 12 13 11 9 7 4 3 3 4 3 3 2 0 0 0 0 0 0 0 0 0 0 0 0 0 0 0 0 0 0 0 0 0 0 0 0 0 0 0 0 0 0
9 10 10 9 7 5 4 3 3 3 3 3 2 0 0 0 0 0 0 0 0 0 0 0 0 0 0 0 0 0 0 0 0 0 0 0 0 0 0 0 0 0 0
8 8 8 8 7 5 4 4 4 3 2 3 2 1 0 0 0 0 0 0 0 0 0 0 0 0 0 0 0 0 0 0 0 0 0 0 0 0 0 0 0 0 0
7 7 8 8 7 6 6 8 6 4 2 2 2 2 1 0 0 0 0 0 0 0 0 0 0 0 0 0 0 0 0 0 0 0 0 0 0 0 0 0 0 0 0
5 6 6 7 7 7 8 10 10 6 2 1 2 2 1 0 0 0 0 0 0 0 0 0 0 0 0 0 0 0 0 0 0 0 0 0 0 0 0 0 0 0 0
4 4 4 5 5 6 8 11 10 6 2 1 1 2 1 0 0 0 0 0 0 0 0 0 0 0 0 0 0 0 0 0 0 0 0 0 0 0 0 0 0 0 0
3 3 3 2 2 5 9 10 7 4 2 1 1 1 0 0 0 0 0 0 0 0 0 0 0 0 0 0 0 0 0 0 0 0 0 0 0 0 0 0 0 0 0
3 3 3 1 1 4 8 7 5 3 2 1 0 0 0 0 0 0 0 0 0 0 0 0 0 0 0 0 0 0 0 0 0 0 0 0 0 0 0 0 0 0 0

GEFSSE_con_prob3kmehi_132.txt.gz
EHI
16 17 15 11 8 9 16 25 31 30 26 20 12 5 2 1 0 0 0 0 0 0 0 0 0 0 0 0 0 0 0 0 0 0 0 0 0 0 0 0 0 0 0
21 21 18 14 13 16 23 32 37 35 29 21 11 5 2 2 1 0 0 0 0 0 0 0 0 0 0 0 0 0 0 0 0 0 0 0 0 0 0 0 0 0 0
25 24 20 18 19 24 30 36 40 38 30 19 10 4 3 3 2 1 0 0 0 0 0 0 0 0 0 0 0 0 0 0 0 0 0 0 0 0 0 0 0 0 0
26 24 22 21 23 26 30 34 36 32 25 16 8 4 3 3 2 1 0 0 0 0 0 0 0 0 0 0 0 0 0 0 0 0 0 0 0 0 0 0 0 0 0
27 26 26 25 24 26 28 29 27 23 18 12 7 4 3 2 1 0 0 0 0 0 0 0 0 0 0 0 0 0 0 0 0 0 0 0 0 0 0 0 0 0 0
26 27 28 26 24 25 26 25 21 16 12 8 5 3 3 1 0 0 0 0 0 0 0 1 1 0 0 0 0 0 0 0 0 0 0 0 0 0 0 0 0 0 0
22 24 28 27 23 23 25 24 19 14 10 7 5 3 2 1 0 0 0 0 0 0 0 1 2 1 0 0 0 0 0 0 0 0 0 0 0 0 0 0 0 0 0
17 21 25 23 18 19 21 21 19 15 12 8 5 3 1 1 1 0 0 0 0 0 0 2 2 1 0 0 0 0 0 0 0 0 0 0 0 0 0 0 0 0 0
14 18 20 17 13 12 14 16 17 17 14 10 5 2 1 1 1 0 0 0 0 0 0 1 2 2 1 0 0 0 0 0 0 0 0 0 0 0 0 0 0 0 0
14 15 16 14 11 9 8 10 14 16 14 9 5 2 1 0 0 0 0 0 0 0 0 1 1 1 1 0 0 0 0 0 0 0 0 0 0 0 0 0 0 0 0
20 18 16 16 13 9 7 8 11 12 10 7 4 2 0 0 0 0 0 0 0 0 0 0 0 0 0 0 0 0 0 0 0 0 0 0 0 0 0 0 0 0 0
32 24 19 19 18 13 11 11 11 10 8 6 4 2 1 1 0 0 1 0 0 0 0 0 0 0 0 0 0 0 0 0 0 0 0 0 0 0 0 0 0 0 0
40 30 23 23 23 22 21 19 17 13 9 7 5 2 2 3 2 2 1 1 0 0 0 0 0 0 0 0 0 0 0 0 0 0 0 0 0 0 0 0 0 0 0
46 37 30 31 32 34 33 27 21 16 11 8 7 5 4 5 5 4 3 2 0 0 0 0 0 0 0 0 0 0 0 0 0 0 0 0 0 0 0 0 0 0 0
48 42 39 41 43 43 41 32 23 17 12 10 10 8 6 7 7 6 5 2 0 0 0 0 0 0 1 1 0 0 0 0 0 0 0 0 0 0 0 0 0 0 0
46 45 46 48 47 46 43 34 24 17 13 11 11 11 9 9 8 6 3 1 0 0 0 0 0 0 1 1 0 0 0 0 0 0 0 0 0 0 0 0 0 0 0
41 43 45 45 44 43 41 34 25 18 13 12 12 13 11 10 10 7 3 1 0 0 1 1 0 0 1 1 0 0 0 0 0 0 0 0 0 0 0 0 0 0 0
33 35 35 35 36 38 40 37 28 21 16 14 13 13 12 11 9 7 3 2 1 1 1 1 0 1 1 1 0 0 0 0 0 0 0 0 0 0 0 0 0 0 0
27 28 27 27 30 35 39 39 32 26 22 18 16 15 12 9 7 5 4 4 3 2 1 1 1 1 1 1 0 0 0 0 0 0 0 0 0 0 0 0 0 0 0
26 28 26 25 28 33 38 38 32 26 23 21 19 16 11 8 6 4 5 6 4 2 2 2 2 1 0 0 0 0 0 0 0 0 0 0 0 0 0 0 0 0 0
31 31 31 29 29 32 35 36 32 25 22 21 19 16 11 7 6 6 6 6 6 5 4 4 3 1 0 0 0 0 0 0 0 0 0 0 0 0 0 0 0 0 0
35 33 31 31 30 28 29 31 30 27 25 24 21 16 11 7 6 5 5 5 6 7 6 5 3 1 0 0 0 0 0 0 0 0 0 0 0 0 0 0 0 0 0
31 28 26 27 28 25 23 23 24 25 24 24 23 18 13 10 7 4 3 3 5 6 6 5 4 2 0 0 0 0 0 0 0 0 0 0 0 0 0 0 0 0 0
22 19 18 21 24 22 18 15 14 17 20 22 24 21 18 15 9 5 3 2 4 5 4 3 3 2 1 1 0 0 0 0 0 0 0 0 0 0 0 0 0 0 0
15 13 12 15 17 15 12 10 9 12 15 19 20 20 20 17 11 6 4 3 4 4 3 1 1 2 2 1 0 0 0 0 0 0 0 0 0 0 0 0 0 0 0
12 11 9 11 12 10 8 7 8 9 12 15 15 15 17 16 11 6 4 5 5 4 3 2 1 1 2 1 0 0 0 0 0 0 0 0 0 0 0 0 0 0 0

GEFSSE_con_prob3kmehi_138.txt.gz
EHI
32 30 30 22 10 4 1 0 0 0 0 0 0 0 0 0 0 0 0 0 0 0 0 0 0 0 0 0 0 0 0 0 0 0 0 0 0 0 0 0 0 0 0
40 38 35 26 13 5 3 2 1 0 0 0 0 0 0 0 0 0 0 0 0 0 0 0 0 0 0 0 0 0 0 0 0 0 0 0 0 0 0 0 0 0 0
48 43 39 32 17 8 6 5 3 1 0 0 0 0 0 0 0 0 0 0 0 0 0 0 0 0 0 0 0 0 0 0 0 0 0 0 0 0 0 0 0 0 0
47 43 40 36 24 12 8 6 4 2 0 0 0 0 0 0 0 0 0 0 0 0 0 0 0 0 0 0 0 0 0 0 0 0 0 0 0 0 0 0 0 0 0
43 44 45 40 29 16 9 7 5 2 0 0 0 0 0 0 0 0 0 0 0 0 0 0 0 0 0 0 0 0 0 1 0 0 0 0 0 0 0 0 0 0 0
42 44 45 41 31 20 11 8 6 3 1 0 0 0 0 0 0 0 0 0 0 0 0 0 0 0 0 0 0 0 0 1 1 0 0 0 0 0 0 0 0 0 0
48 45 42 39 32 21 12 9 7 4 2 0 0 0 0 0 0 0 0 0 0 0 0 0 0 0 0 0 0 0 1 2 2 0 0 0 0 0 0 0 0 0 0
59 50 41 36 29 20 13 9 7 6 3 1 0 0 0 0 0 0 0 0 0 0 0 0 0 0 0 0 0 0 2 4 2 0 0 0 0 0 0 0 0 0 0
66 54 40 33 26 17 11 8 7 6 5 3 1 0 0 0 0 0 0 0 0 0 0 0 0 0 0 0 0 0 2 4 3 1 0 0 0 0 0 0 0 0 0
67 52 36 29 24 15 8 7 6 6 6 3 1 0 0 0 0 0 0 0 0 0 0 0 0 0 0 0 0 0 1 3 3 1 0 0 0 0 0 0 0 0 0
64 48 31 28 24 14 7 6 6 6 5 3 1 0 0 0 0 0 1 1 0 0 0 0 0 0 0 0 0 0 0 1 1 0 0 0 0 0 0 0 0 0 0
66 48 34 31 25 14 10 9 6 5 5 3 2 1 0 0 1 2 3 2 1 0 0 0 0 0 0 0 0 0 0 0 0 0 0 0 1 0 0 0 0 0 0
66 55 45 42 34 24 20 14 8 6 7 6 5 4 1 1 2 4 5 3 1 0 0 0 0 0 0 0 0 0 0 1 0 0 0 0 0 0 0 0 0 0 0
68 62 60 60 54 48 38 21 11 10 11 11 11 7 2 2 4 7 6 3 1 1 1 1 2 1 1 1 0 0 1 2 2 1 0 0 0 0 0 0 0 0 0
74 69 70 73 73 71 58 35 21 19 19 20 18 12 7 6 8 12 11 6 4 4 3 4 5 4 4 2 1 0 1 3 3 2 1 0 0 1 1 0 0 0 0
80 77 76 78 80 79 67 48 35 30 26 27 28 23 16 14 17 18 13 10 9 10 10 9 7 5 4 2 1 2 3 4 4 3 1 0 0 1 2 1 0 0 0
83 82 79 76 77 76 67 53 41 35 31 31 36 33 24 24 28 23 14 10 11 16 18 13 8 3 1 0 1 3 5 4 3 3 1 0 0 1 2 1 0 0 0
81 81 77 72 72 72 66 55 45 42 41 41 41 37 30 31 34 26 16 12 13 17 17 13 7 3 1 1 2 3 3 3 2 2 1 1 2 2 2 1 0 0 0
75 74 72 69 69 70 67 60 54 53 53 49 46 42 38 37 35 27 21 19 16 15 13 9 7 5 2 2 2 2 2 2 2 1 1 2 3 3 1 1 1 0 0
68 69 69 69 69 68 64 60 56 54 51 48 47 48 44 39 33 25 23 23 19 14 11 10 10 7 3 2 1 1 1 2 2 2 1 1 2 2 1 1 1 1 0
64 66 67 67 65 63 60 56 53 46 41 40 43 47 44 38 31 24 22 24 21 16 13 13 11 6 2 1 0 0 0 1 3 2 1 0 0 1 2 3 3 3 2
61 63 64 62 60 56 55 55 51 43 37 36 39 42 39 35 29 23 24 25 23 20 16 12 9 4 1 0 0 0 0 1 2 2 1 0 0 0 2 4 4 5 5
59 59 59 59 57 53 52 51 47 42 38 36 37 36 33 30 27 25 25 25 22 20 15 11 7 4 2 0 0 0 0 0 0 0 0 0 0 0 1 2 3 5 6
56 56 56 57 55 52 50 45 40 38 37 37 38 35 30 27 27 27 26 26 23 19 14 10 8 7 4 2 1 1 1 1 0 0 0 0 1 0 0 0 2 4 5
51 52 53 54 53 50 46 41 38 37 36 37 38 37 32 28 29 30 30 29 26 21 17 14 13 11 8 5 2 1 2 2 0 0 0 0 0 0 0 1 2 3 4
48 49 50 51 51 48 43 40 39 38 36 36 37 36 34 29 29 33 33 31 27 23 20 19 18 14 11 7 3 1 2 1 0 0 0 0 0 0 1 2 2 2 3

GEFSSE_con_prob3kmehi_144.txt.gz
EHI
7 11 15 16 14 11 9 6 4 3 5 6 6 5 5 3 2 2 1 0 0 0 0 0 0 0 0 0 0 0 0 1 0 0 0 0 0 0 0 0 0 0 0
12 13 16 17 14 11 9 7 4 2 3 4 4 4 4 2 1 1 0 0 0 0 0 0 0 0 0 0 0 1 1 2 1 0 0 0 0 0 0 0 0 0 0
20 18 18 20 17 14 10 7 4 1 1 2 2 2 2 1 0 0 0 0 0 0 0 0 0 0 0 0 1 2 3 3 2 0 0 0 0 0 0 0 0 0 0
28 23 22 25 25 20 13 7 4 2 1 1 1 1 1 0 0 0 0 0 0 0 0 0 0 0 0 0 1 2 2 2 1 0 0 0 0 0 0 0 0 0 0
34 27 27 34 34 26 16 7 4 3 2 1 0 0 0 0 0 0 0 0 0 0 0 0 0 0 0 0 0 1 1 1 0 0 0 0 0 0 0 0 0 0 0
40 33 34 41 39 30 19 9 5 3 3 1 0 0 0 0 0 0 0 0 0 0 0 0 0 0 0 0 0 0 0 0 0 0 0 0 0 0 0 0 0 0 0
52 43 41 46 42 31 21 13 7 4 3 2 1 0 0 0 0 0 0 0 0 0 0 0 0 0 0 0 0 0 0 0 0 0 0 0 0 0 0 0 0 0 0
64 55 48 46 40 31 22 15 9 5 4 3 1 0 0 0 0 0 0 0 0 0 0 0 0 0 0 0 1 1 1 0 0 0 0 0 0 0 0 0 0 0 0
66 60 51 42 35 28 21 15 9 5 3 3 2 1 0 0 0 0 0 0 0 0 0 0 0 0 0 0 1 2 1 0 0 0 0 0 0 0 0 0 0 0 0
57 54 48 40 33 27 19 14 9 5 3 3 3 2 1 0 0 0 0 0 0 0 0 0 0 0 0 0 1 1 0 0 0 0 0 0 0 0 0 0 0 0 0
49 45 41 38 34 27 18 12 9 6 3 3 3 2 1 0 0 0 0 0 0 0 0 0 0 0 0 0 0 0 0 0 0 0 0 0 0 0 0 0 0 0 0
49 43 37 36 33 25 16 11 9 7 4 3 3 2 1 0 0 0 0 0 0 0 0 0 0 1 1 0 0 0 0 0 0 0 0 0 0 0 0 0 0 0 0
51 45 37 33 29 22 16 11 9 7 5 4 3 2 1 0 0 0 0 0 0 0 0 0 0 1 1 0 0 0 0 0 0 0 0 0 0 0 0 0 0 0 0
55 48 39 32 26 22 17 12 9 8 6 4 3 2 1 0 0 0 0 0 0 0 0 0 0 1 1 0 0 0 0 0 0 0 0 0 0 0 0 0 0 0 0
58 51 41 32 25 22 18 14 11 9 6 4 3 1 0 0 0 0 0 0 0 0 0 0 0 0 0 0 0 0 0 0 0 0 0 0 0 0 0 0 0 0 0
60 53 43 34 27 23 20 16 13 10 6 4 2 1 0 0 0 0 0 0 0 0 0 0 0 0 0 0 0 0 0 0 0 0 0 0 0 0 0 0 0 0 0
62 58 49 38 31 27 22 18 15 11 8 5 2 1 0 0 0 0 0 0 0 0 0 0 0 0 0 0 0 0 0 0 0 0 0 0 0 0 0 0 0 0 0
67 64 55 45 37 31 24 18 14 12 9 6 3 1 1 1 1 1 1 1 0 0 0 0 0 0 0 0 0 0 0 0 0 0 0 0 0 0 0 0 0 0 0
72 68 59 51 44 35 26 19 15 11 8 6 3 1 0 1 2 2 2 2 1 0 0 0 0 0 0 0 0 0 0 0 0 0 0 0 0 0 0 0 0 0 1
71 67 60 55 49 40 31 26 21 14 8 6 4 2 1 1 2 3 3 2 1 0 0 0 0 0 0 0 0 0 0 0 0 0 0 0 0 0 0 0 0 0 1
67 63 59 56 52 44 36 31 27 20 14 10 8 5 3 2 3 3 3 3 1 0 0 0 0 0 0 0 0 0 0 0 0 0 0 0 0 0 0 0 0 0 1
63 61 58 55 52 46 37 30 24 21 18 15 12 9 6 4 3 3 3 3 2 1 0 0 0 0 0 0 0 0 0 0 0 0 0 0 0 0 0 0 0 0 0
58 58 56 54 51 46 37 28 21 18 17 16 13 10 8 5 3 3 3 3 2 1 0 0 0 0 0 0 0 0 0 0 0 0 0 0 0 0 0 0 0 0 0
54 54 53 52 48 44 37 28 21 17 15 13 11 10 8 5 3 3 4 3 1 0 0 0 0 0 0 0 0 0 0 0 0 0 0 0 0 0 0 0 0 0 0
50 50 49 48 44 39 33 27 20 15 11 9 8 7 6 4 3 3 4 3 1 0 0 0 0 0 0 0 0 0 0 0 0 0 0 0 0 0 0 0 0 0 0
49 48 46 44 40 35 30 25 19 13 8 7 6 5 6 5 3 4 4 2 0 0 0 0 0 0 0 0 0 0 0 0 0 0 0 0 0 0 0 0 0 0 0

GEFSSE_con_prob3kmehi_150.txt.gz
EHI
3 6 10 11 13 19 27 33 36 39 37 29 23 17 10 5 2 1 0 0 0 0 0 0 0 0 0 0 0 0 0 0 0 0 0 0 0 0 0 0 0 0 0
7 9 12 14 15 19 24 27 30 33 31 26 21 15 9 4 1 0 0 0 0 0 0 0 0 0 0 0 0 0 0 0 0 0 0 0 0 0 0 0 0 0 0
15 14 16 18 19 20 22 23 24 24 22 19 16 11 6 3 1 0 0 0 0 0 0 0 0 0 0 0 0 0 0 0 0 0 0 0 0 0 0 0 0 0 0
21 17 17 22 23 22 24 25 23 20 16 13 10 7 3 1 0 0 0 0 0 0 0 0 0 0 0 0 0 0 0 0 0 0 0 0 0 0 0 0 0 0 0
19 16 18 25 27 25 27 27 23 18 13 10 8 5 2 0 0 0 0 0 0 0 0 0 0 0 0 0 0 0 0 0 0 0 0 0 0 0 0 0 0 0 0
17 16 22 31 32 28 27 26 22 16 11 8 7 5 1 0 0 0 0 0 0 0 0 0 0 0 0 0 0 0 0 0 0 0 0 0 0 0 0 0 0 0 0
25 21 27 38 38 30 26 25 22 16 10 7 5 3 1 0 0 0 0 0 0 0 0 0 0 0 0 0 0 0 0 0 0 0 0 0 0 0 0 0 0 0 0
39 33 32 38 36 27 23 24 22 16 10 6 4 1 0 0 0 0 0 0 0 0 0 0 0 0 0 0 0 0 0 0 0 0 0 0 0 0 0 0 0 0 0
49 44 38 33 29 24 20 20 19 15 9 5 3 1 0 0 0 0 0 0 0 0 0 0 0 0 0 0 0 0 0 0 0 0 0 0 0 0 0 0 0 0 0
50 47 41 34 28 22 18 16 16 13 8 5 4 2 1 0 0 0 0 0 0 0 0 0 0 0 0 0 0 0 0 0 0 0 0 0 0 0 0 0 0 0 0
48 43 40 38 32 25 19 15 13 10 7 5 4 2 1 0 0 0 0 0 0 0 0 0 0 0 0 0 0 1 0 0 0 0 0 0 0 0 0 0 0 0 0
48 42 37 37 35 30 22 16 13 10 6 6 5 3 1 0 0 0 0 0 0 0 0 0 0 0 0 0 0 0 0 0 0 0 0 0 0 0 0 0 0 0 0
50 44 38 37 36 32 25 20 16 12 8 7 5 3 1 0 0 0 0 0 0 0 0 0 0 0 0 0 0 0 0 0 0 0 0 0 0 0 0 0 0 0 0
52 47 41 39 37 32 26 22 19 14 10 8 5 2 1 0 0 0 0 0 0 0 0 0 0 0 0 0 0 0 0 0 0 0 0 0 0 0 0 0 0 0 0
50 48 45 41 38 32 27 23 19 14 10 7 4 2 0 0 0 0 0 0 0 0 0 0 0 0 0 0 0 0 0 0 0 0 0 0 0 0 0 0 0 0 0
45 45 44 43 38 32 28 23 19 15 11 8 5 3 1 1 1 0 0 0 0 0 0 0 0 0 0 0 0 0 0 0 0 0 0 0 0 0 0 0 0 0 0
41 41 42 42 37 31 26 21 17 14 11 8 5 4 3 2 1 0 0 0 0 0 0 0 0 0 0 0 0 0 0 0 0 0 0 0 0 0 0 0 0 0 0
39 38 39 40 35 28 22 18 15 13 9 6 4 3 3 2 1 0 0 0 0 0 0 0 0 0 0 0 0 0 0 0 0 0 0 0 0 0 0 0 0 0 0
41 39 37 35 32 26 22 18 14 11 7 4 3 1 1 1 1 0 0 0 0 0 0 0 0 0 0 0 0 0 0 0 0 0 0 0 0 0 0 0 0 0 0
46 42 35 30 26 24 22 17 12 8 5 3 2 1 0 0 0 0 1 0 0 0 0 0 0 0 0 0 0 0 0 0 0 0 0 0 0 0 0 0 0 0 0
48 44 36 29 25 23 21 17 11 7 4 3 2 1 1 0 0 0 0 0 0 0 0 0 0 0 0 0 0 0 0 0 0 0 0 0 0 0 0 0 0 0 0
46 43 39 34 29 25 20 16 10 6 3 2 2 2 2 1 0 0 0 0 0 0 0 0 0 0 0 0 0 0 0 0 0 0 0 0 0 0 0 0 0 0 0
44 43 41 37 31 26 21 16 10 7 4 2 2 2 2 1 0 0 0 0 0 0 0 0 0 0 0 0 0 0 0 0 0 0 0 0 0 0 0 0 0 0 0
45 43 41 38 33 29 24 17 13 10 5 2 1 1 1 0 0 0 0 0 0 0 0 0 0 0 0 0 0 0 0 0 0 0 0 0 0 0 0 0 0 0 0
42 41 39 37 35 32 26 19 14 10 6 3 1 0 0 0 0 0 0 0 0 0 0 0 1 0 0 0 0 0 0 0 0 0 0 0 0 0 0 0 0 0 0
39 39 37 36 35 32 26 18 13 9 6 4 1 0 0 0 0 0 0 0 0 0 0 0 1 0 0 0 0 0 0 0 0 0 0 0 0 0 0 0 0 0 0

GEFSSE_con_prob3kmehi_156.txt.gz
EHI
3 5 5 3 4 6 10 15 17 16 12 9 5 4 3 1 0 0 0 0 0 0 0 0 0 0 0 0 0 0 0 0 0 0 0 0 0 0 0 0 0 0 0
6 7 6 4 5 8 14 19 21 18 13 9 5 4 3 2 1 0 0 0 0 0 0 0 0 0 0 0 0 0 0 0 0 0 0 0 0 0 0 0 0 0 0
8 8 6 5 7 12 19 25 25 22 16 10 6 4 3 2 1 0 0 0 0 0 0 0 0 0 0 0 0 0 0 0 0 0 0 0 0 0 0 0 0 0 0
9 8 7 7 10 15 22 27 28 24 18 10 6 4 2 1 0 0 0 0 0 0 0 0 0 0 0 0 0 0 0 0 0 0 0 0 0 0 0 0 0 0 0
9 9 10 11 13 16 21 26 26 21 14 7 4 3 1 0 0 0 0 0 0 0 0 0 0 0 0 0 0 0 0 0 0 0 0 0 0 0 0 0 0 0 0
9 10 13 14 13 14 16 20 19 14 9 5 4 2 1 0 0 0 0 0 0 1 1 0 0 0 0 0 0 0 0 0 0 0 0 0 0 0 0 0 0 0 0
8 10 13 15 12 11 12 13 11 9 6 5 4 2 1 0 0 0 0 0 0 1 1 0 0 0 0 0 0 0 0 0 0 0 0 0 0 0 0 0 0 0 0
6 9 13 13 11 9 9 9 8 6 4 4 3 2 1 0 0 0 0 0 0 1 1 0 0 0 0 0 0 0 0 0 0 0 0 0 0 0 0 0 0 0 0
5 8 11 10 8 8 7 7 7 5 4 3 3 2 1 0 0 0 0 1 0 0 0 0 0 0 0 0 0 0 0 0 0 0 0 0 0 0 0 0 0 0 0
7 8 9 8 6 6 7 7 7 6 4 3 2 1 0 0 0 0 0 0 0 0 0 0 0 0 0 0 0 0 0 0 0 0 0 0 0 0 0 0 0 0 0
15 13 11 10 8 7 7 7 6 5 5 3 2 1 0 0 0 0 0 0 0 0 0 0 0 0 0 0 0 0 0 0 0 0 0 0 0 0 0 0 0 0 0
29 23 17 15 13 9 8 8 6 4 4 3 3 2 1 0 0 0 1 1 0 0 0 0 0 0 0 0 0 0 0 0 0 0 0 0 0 0 0 0 0 0 0
38 31 24 21 18 14 11 9 5 4 3 3 3 2 1 0 0 1 2 2 1 0 0 0 0 0 0 0 0 0 0 0 0 0 0 0 0 0 0 0 0 0 0
43 37 30 25 21 18 15 11 7 5 3 4 4 3 1 0 1 2 3 3 1 0 0 0 0 0 0 0 0 0 0 0 0 0 0 0 0 0 0 0 0 0 0
49 43 35 31 27 23 19 14 9 6 4 5 6 4 1 0 1 2 3 3 2 1 0 0 0 0 0 0 0 0 0 0 0 0 0 0 0 0 0 0 0 0 0
54 47 41 38 35 30 23 16 10 7 5 5 6 4 1 0 0 1 3 4 4 2 1 1 0 0 0 0 0 0 0 0 0 0 0 0 0 0 0 0 0 0 0
54 50 44 40 39 35 27 17 10 7 6 6 7 6 2 0 0 0 2 5 5 3 2 1 0 0 0 0 0 0 0 0 0 0 0 0 0 0 0 0 0 0 0
48 49 45 39 38 38 31 21 13 9 7 8 10 8 4 2 1 1 2 3 4 3 2 1 0 0 0 0 0 0 0 0 0 0 0 0 0 0 0 0 0 0 0
43 46 46 41 39 39 35 27 17 11 9 10 11 9 7 5 3 1 1 2 3 3 2 1 1 0 0 0 0 0 0 0 0 0 0 0 0 0 0 0 0 0 0
40 43 45 45 43 41 38 32 23 15 12 11 11 9 8 6 5 4 3 3 4 4 3 2 1 0 0 0 0 0 0 0 0 0 0 0 0 0 0 0 0 0 0
38 41 45 47 46 45 43 37 30 21 14 11 10 8 8 8 8 7 6 6 6 5 4 3 1 1 0 0 0 0 0 0 0 0 0 0 0 0 0 0 0 0 0
38 42 46 48 48 48 48 43 36 28 18 12 9 9 9 10 10 7 7 8 7 6 4 2 2 2 2 2 1 1 0 0 0 0 0 0 0 0 0 0 0 0 0
38 42 46 47 47 46 46 43 38 31 22 16 14 12 11 12 11 7 5 6 6 5 3 2 2 3 3 3 3 2 1 0 0 0 0 0 0 0 0 0 0 0 0
36 39 43 44 43 40 39 39 36 31 24 21 20 16 12 12 12 8 5 4 4 3 2 2 2 3 3 3 3 2 1 0 0 0 0 0 0 0 0 0 0 0 0
34 38 42 42 39 37 35 34 34 30 24 21 20 17 13 11 11 8 6 4 3 2 2 2 2 1 2 2 2 1 2 2 1 0 0 0 0 0 0 0 0 0 1
35 39 43 41 39 37 34 32 32 29 24 20 18 16 13 11 9 9 7 5 3 2 2 3 2 1 1 1 0 1 3 3 1 1 1 1 1 0 0 0 0 1 1